SCP
0 0 0 0 0 0 0 0 0 0 0 0 0 0 0 0 0 0 0 0 0 0 0 0 0 0 0 0 0 0 0 0 0 0 0 0 0 0 0 0 0 0 0
0 0 0 0 0 0 0 0 0 0 0 0 0 0 0 0 0 0 0 0 0 0 0 0 0 0 0 0 0 0 0 0 0 0 0 0 0 0 0 0 0 0 0
0 0 0 0 0 0 0 0 0 0 0 0 0 0 0 0 0 0 0 0 0 0 0 0 0 0 0 0 0 0 0 0 0 0 0 0 0 0 0 0 0 0 0
0 0 0 0 0 0 0 0 0 0 0 0 0 0 0 0 0 0 0 0 0 0 0 0 0 -0 -0 -0 -0 0 0 0 0 0 0 0 0 0 0 0 0 0 0
0 0 0 0 0 0 0 0 0 0 0 0 0 0 0 0 0 0 0 0 0 0 0 0 -0 -0 -0 -0 -0 0 0 0 0 0 0 0 0 0 0 0 0 0 0
0 0 0 0 0 0 0 0 0 0 0 0 0 0 0 0 0 0 0 0 0 0 0 0 -0 -0 -0 -0 -0 -0 -0 -0 -0 0 0 0 0 0 0 0 0 0 0
0 0 0 0 0 0 0 0 0 0 0 0 0 0 0 0 0 0 0 0 0 0 0 -0 -0 -0 0 0 -0 0 0 0 0 0 0 0 0 0 0 0 0 0 0
0 0 0 0 0 0 0 0 0 0 0 0 0 0 0 0 0 0 0 0 0 0 0 -0 -0 -0 0 0 0 0 0 0 0 0 0 0 0 0 0 0 0 0 0
0 0 0 0 0 0 0 0 0 0 0 0 0 0 0 0 0 0 0 0 0 0 0 0 0 0 0 0 0 0 0 0 0 0 0 0 0 0 0 0 0 0 0
0 0 0 0 0 0 0 0 0 0 0 0 0 0 0 0 0 0 0 0 0 0 0 0 0 0 0 0 0 0 0 0 0 0 0 0 0 0 0 0 0 0 0
0 0 0 0 0 0 0 0 0 0 0 0 0 0 0 0 0 0 0 0 0 0 0 0 0 0 0 0 0 0 0 0 0 -0 -0 -0 -0 0 0 0 0 0 0
0 0 0 0 0 0 0 0 0 0 0 0 0 0 0 0 0 0 0 0 0 0 0 0 0 0 0 0 0 0 0 0 0 -0 -0 -0 -0 -0 -0 -0 -0 -0 0
0 0 0 0 0 0 0 0 0 0 0 0 0 0 0 0 0 0 0 0 0 0 0 0 0 0 0 0 0 0 0 0 0 0 -0 -0 -0 -0 -0 -0 -0 -0 -0
0 0 0 0 0 0 0 0 0 0 0 0 0 0 0 0 0 0 0 0 0 0 0 0 0 0 0 0 0 0 0 0 0 0 0 0 0 0 0 -0 -0 -0 -0
0 0 0 0 0 0 0 0 0 0 0 0 0 0 0 0 0 0 0 0 0 0 0 0 0 0 0 0 0 0 0 0 0 0 0 0 0 0 0 0 0 0 0
0 0 0 0 0 0 0 0 0 0 0 0 0 0 0 0 0 0 0 0 0 0 0 0 0 0 0 0 0 0 0 0 0 0 0 0 0 0 0 0 0 0 0
0 0 0 0 0 0 0 0 0 0 0 0 0 0 0 0 0 0 0 0 0 0 0 0 0 0 0 0 0 0 0 0 0 0 0 0 0 0 0 0 0 0 0
0 0 0 0 0 0 0 0 0 0 0 0 0 0 0 0 0 0 0 0 0 0 0 0 0 0 0 0 0 0 0 0 0 0 0 0 0 0 0 0 0 0 0
0 0 0 0 0 0 0 0 0 0 0 0 0 0 0 0 0 0 0 0 0 0 0 0 0 0 0 0 0 0 0 0 0 0 0 0 0 0 0 0 0 0 0
0 0 0 0 0 0 0 0 0 0 0 0 0 0 0 0 0 0 0 0 0 0 0 0 0 0 0 0 0 0 0 0 0 0 0 0 0 0 0 0 0 0 0
0 0 0 0 0 0 0 0 0 0 0 0 0 0 0 0 0 0 0 0 0 0 0 0 0 0 0 0 0 0 0 0 0 0 0 0 0 0 0 0 0 0 0
0 0 0 0 0 0 0 0 0 0 0 0 0 0 0 0 0 0 0 0 0 0 0 0 0 0 0 0 0 0 0 0 0 0 0 0 0 0 0 0 0 0 0
0 0 0 0 0 0 0 0 0 0 0 0 0 0 0 0 0 0 0 0 0 0 0 0 0 0 0 0 0 0 0 0 0 0 0 0 0 0 0 0 0 0 0
0 0 0 0 0 0 0 0 0 0 0 0 0 0 0 0 0 0 0 0 0 0 0 0 0 0 0 0 0 0 0 0 0 0 0 0 0 0 0 0 0 0 0
0 0 0 0 0 0 0 0 0 0 0 0 0 0 0 0 0 0 0 0 0 0 0 0 0 0 0 0 0 0 0 0 0 0 0 0 0 0 0 0 0 0 0
0 0 0 0 0 0 0 0 0 0 0 0 0 0 0 0 0 0 0 0 0 0 0 0 0 0 0 0 0 0 0 0 0 0 0 0 0 0 0 0 0 0 0
Wind_Speed
6 5 4 4 4 4 3 3 3 3 3 2 2 3 3 3 3 2 2 2 2 2 3 4 4 3 2 2 2 2 2 3 3 0 1 1 2 2 2 1 1 1 2
5 5 5 5 4 4 4 4 3 3 2 2 2 2 3 3 3 3 2 2 2 3 3 4 3 3 3 3 2 2 2 2 3 2 1 1 1 1 1 1 1 2 1
6 5 5 5 5 4 4 4 3 3 3 2 3 3 3 3 3 3 2 1 2 2 3 3 3 3 2 2 2 2 2 2 2 2 1 0 0 1 1 1 1 1 0
6 6 5 5 5 5 4 4 3 3 3 3 3 3 3 3 3 2 2 2 2 3 3 3 3 3 3 2 2 2 2 2 2 1 1 0 0 0 1 1 2 2 2
7 6 5 5 5 5 5 4 3 3 3 3 3 3 3 3 3 3 2 2 2 2 3 4 4 6 7 4 3 2 2 1 1 1 0 1 0 1 1 1 1 2 2
8 7 5 5 5 5 5 4 4 3 3 3 3 3 3 3 4 5 3 2 1 2 2 3 4 5 6 6 6 5 3 2 1 0 0 0 1 1 1 1 1 1 2
8 7 6 6 6 6 6 5 5 4 3 3 3 4 4 3 4 3 3 2 1 1 1 2 2 4 4 3 3 3 3 2 0 1 0 1 1 1 1 1 1 1 2
7 7 7 6 6 5 5 5 5 4 4 3 3 4 4 4 4 2 0 1 1 0 1 2 3 3 2 2 2 1 1 1 1 1 0 1 1 1 0 1 1 2 2
7 7 7 7 7 6 6 6 4 4 4 4 4 4 4 4 5 4 2 1 1 1 1 1 2 3 3 3 2 1 0 1 1 1 0 1 1 2 1 1 1 1 2
7 7 7 7 7 6 6 5 4 4 4 4 4 4 4 4 6 6 5 1 1 1 1 1 2 2 3 4 2 1 1 2 1 1 2 3 3 3 3 2 2 1 2
6 6 7 7 7 6 5 4 5 4 4 4 4 4 4 5 7 8 7 3 2 2 1 1 1 4 4 5 4 2 3 2 1 2 2 2 2 2 2 3 3 2 2
5 5 5 6 6 6 5 5 5 5 4 4 3 3 3 4 5 7 9 7 4 2 2 2 2 4 5 6 4 4 4 2 1 1 2 2 3 3 3 3 3 3 4
5 5 5 5 4 5 5 5 4 3 3 3 3 3 2 2 3 7 9 9 7 3 2 2 3 4 4 4 5 5 4 2 2 2 4 4 3 3 2 2 3 3 4
5 5 4 4 4 4 3 4 3 3 3 3 3 2 2 2 2 2 3 4 5 4 3 3 4 3 3 3 3 4 3 3 3 4 4 3 3 2 2 2 2 2 3
5 5 4 4 4 4 3 3 3 2 3 3 3 2 3 3 3 5 4 3 3 4 2 2 2 1 2 3 3 3 3 3 5 4 4 4 3 3 3 3 3 3 4
3 3 3 3 3 3 3 2 2 2 3 4 3 2 1 2 1 3 4 4 4 4 3 3 3 4 4 4 4 4 4 5 5 4 4 4 4 4 4 3 3 4 5
3 3 3 2 3 3 3 3 2 0 0 1 2 3 2 2 1 2 2 2 3 3 3 3 4 4 4 4 4 4 4 4 4 4 4 4 4 4 4 4 4 4 5
3 3 3 2 2 2 2 2 2 2 1 1 2 3 3 3 3 3 2 1 1 2 3 4 4 3 3 3 4 4 3 3 3 3 4 4 4 4 4 5 4 5 6
3 2 2 2 2 1 1 1 1 1 1 1 1 1 2 2 2 2 3 2 3 3 3 3 3 3 3 3 3 3 3 3 4 4 4 4 4 4 5 5 5 8 7
3 4 3 2 2 2 1 1 1 1 1 1 1 1 1 1 0 1 2 2 2 3 3 3 3 3 3 3 3 3 4 4 4 4 4 4 4 4 6 7 6 6 6
2 3 3 2 2 1 1 1 1 1 1 1 0 1 1 1 1 2 2 2 2 3 3 3 3 3 3 3 3 4 5 4 4 4 4 4 4 5 5 5 6 6 6
2 2 1 1 1 2 1 1 1 1 1 1 0 1 1 1 1 1 2 2 2 2 2 3 3 3 3 3 3 4 4 4 4 4 4 4 4 5 5 6 6 6 6
2 2 2 2 2 2 1 1 1 1 1 1 1 1 0 1 1 1 2 2 2 2 2 2 3 3 3 3 3 3 4 4 4 4 4 5 5 5 6 7 8 8 7
2 2 2 2 1 1 1 1 1 1 1 1 1 1 1 1 2 2 2 2 2 2 2 2 3 4 6 5 4 3 3 4 4 4 5 6 6 6 6 6 7 8 7
2 2 2 2 2 2 2 2 2 2 2 2 2 2 2 2 2 3 3 3 3 3 4 4 4 4 6 7 5 4 5 7 7 5 5 5 6 7 7 7 7 7 7
2 3 2 2 2 2 2 2 2 2 2 2 3 3 3 3 3 3 3 3 3 4 4 4 6 7 7 6 6 7 8 8 9 9 6 5 6 6 7 6 8 8 8
Wind_Direction
175 162 153 149 143 134 132 128 129 126 134 141 118 112 113 109 99 87 82 74 89 89 84 77 61 56 56 40 43 44 42 81 105 67 77 99 75 65 50 32 84 85 62
170 163 158 150 150 152 150 151 145 135 135 128 107 96 96 101 103 97 78 67 79 82 87 91 80 68 57 43 45 44 40 65 112 114 73 59 80 90 58 358 27 75 93
165 164 160 162 166 163 156 150 146 139 141 133 118 105 92 90 90 94 99 90 91 88 85 96 104 94 76 56 53 48 36 52 76 109 140 75 71 85 48 359 8 353 334
162 167 171 170 164 160 153 145 150 141 141 131 117 110 102 90 79 80 88 83 86 93 92 83 79 82 78 69 67 54 53 54 54 73 94 127 130 348 74 357 336 315 310
163 169 173 166 156 149 143 148 147 138 140 131 119 112 105 98 65 49 50 73 86 93 90 87 81 80 71 61 59 48 50 48 50 63 75 44 11 20 318 282 297 296 303
165 169 168 166 151 149 150 152 145 142 138 123 124 119 108 95 84 62 39 13 68 98 112 120 114 96 80 72 63 63 69 69 67 74 169 185 259 249 275 310 323 346 310
168 167 167 164 152 156 157 152 150 155 146 136 139 132 128 123 115 88 35 354 337 123 136 139 123 116 116 106 74 51 35 24 11 170 234 245 249 255 235 303 312 292 257
167 167 165 161 155 155 152 153 160 157 150 159 162 149 139 143 146 137 93 300 313 18 108 128 130 136 135 131 142 105 19 347 331 46 114 293 330 345 345 222 244 303 297
164 167 163 158 156 158 160 162 164 158 159 172 174 163 158 161 169 165 148 233 263 260 204 134 136 143 145 131 133 154 246 293 328 32 275 264 314 338 357 32 352 340 303
165 165 160 157 157 163 167 166 159 158 166 172 178 178 174 171 178 179 177 191 233 243 222 160 136 148 152 152 166 194 230 246 250 292 288 286 281 284 275 215 213 234 271
153 153 153 156 160 163 162 158 156 162 171 181 182 187 181 176 180 186 186 193 215 229 217 199 191 182 185 192 194 203 225 242 248 252 253 258 259 253 249 240 223 206 234
133 138 144 152 158 158 156 161 164 166 177 185 191 196 191 184 178 193 197 205 218 229 232 213 208 204 205 210 212 231 243 266 266 272 273 262 254 252 249 236 231 228 229
128 134 139 143 146 150 155 159 160 165 180 189 189 196 198 178 181 191 203 213 225 232 256 261 245 223 212 216 225 231 233 235 243 255 256 254 249 247 246 249 254 249 259
135 142 146 149 147 142 141 153 160 175 183 186 191 197 193 183 181 185 198 210 222 237 257 271 264 236 218 228 229 233 227 226 227 241 250 255 261 261 254 241 247 253 265
136 142 143 139 140 138 138 147 160 179 179 182 193 188 184 204 208 184 178 194 203 213 213 215 222 222 229 237 235 231 224 229 237 242 247 254 256 254 253 245 240 246 251
125 125 125 131 134 134 132 119 97 135 162 165 160 160 165 164 173 182 192 200 207 204 191 218 226 226 228 232 235 237 230 230 233 233 237 241 247 252 259 257 248 244 254
112 119 124 129 132 142 148 156 162 188 260 206 204 201 200 196 203 212 210 224 231 193 202 230 235 235 237 237 238 239 240 239 235 237 242 246 250 254 256 258 257 257 260
99 102 108 118 131 151 163 170 169 169 181 237 237 226 218 217 228 224 196 149 240 213 226 237 244 246 248 249 249 251 252 252 245 246 247 249 249 253 260 260 259 259 264
100 95 100 110 115 111 107 112 126 149 150 146 123 172 212 225 236 217 170 196 231 237 238 244 249 253 255 256 256 256 256 254 254 250 250 251 250 252 258 260 261 265 263
94 91 90 99 101 100 100 96 96 93 91 101 112 123 118 91 142 202 209 229 244 256 258 257 260 261 262 262 261 258 259 258 257 254 256 256 254 252 256 260 261 263 262
84 88 88 86 86 92 89 96 102 101 89 86 116 147 152 196 227 234 232 235 244 253 259 262 262 261 261 263 265 263 260 259 257 259 260 259 259 261 261 262 265 264 266
84 93 90 92 85 77 65 50 52 64 61 61 51 184 205 245 266 285 283 271 259 260 266 271 272 269 263 262 267 269 269 270 270 270 269 268 269 268 266 264 265 266 267
69 83 82 72 72 73 61 45 43 44 40 28 13 15 338 305 306 306 304 305 307 303 298 293 291 292 291 283 274 267 268 268 269 273 275 274 272 271 269 268 269 271 271
57 65 71 69 62 65 57 39 33 30 29 17 0 356 351 330 328 327 326 324 321 316 313 309 301 298 297 295 286 279 280 287 290 285 281 280 279 276 273 273 273 272 272
56 57 57 59 55 47 38 31 26 26 30 26 15 9 3 359 354 348 344 340 333 328 328 323 313 309 307 306 306 303 306 307 302 296 290 281 278 278 279 278 278 278 275
56 56 55 52 48 44 40 34 31 30 26 18 15 13 6 1 354 347 343 344 339 331 326 321 317 320 322 321 316 313 310 306 300 294 288 278 273 274 278 280 282 282 279